Starlink 34663

operational
NORAD ID: 64807 Int'l Des: 2025-150 Owner: SPXS Country: US Constellation: starlink
LEOCIRCULAR

Über Starlink 34663

Beschreibung wird geladen...

Live-Position

3D-Globus wird geladen...

Nächste Überflüge

Höhenverlauf

Altitude vs Time

uPlot chart will show altitude changes over time

Zweizeiliger Elementsatz

1 64807U 25150T 25340.80905859 .00073282 00000-0 16617-2 0 9991
2 64807 70.0021 9.8547 0002037 317.7188 42.3837 15.42700712 22579
Epoch: 6. Dez. 2025 • Age: 11 hours

Aktueller Status

Höhe 450.3 km
Geschwindigkeit 7.65 km/s
Subsatellitenpunkt 70.04°N, 82.75°W
Startdatum 16. Juli 2025
Alter 0.3 years
Typ internet

Technische Details

Klassifizierung Payload
Masse 575.00 kg
Trockenmasse 530.00 kg
Gesamtmasse 575.00 kg
Länge 0.30 m
Durchmesser 4.10 m
Spannweite 29.00 m
Form Box + pan
Hersteller SPXS
Bus-Typ Starlink V2MO
Phasenstatus In Orbit
Besitzer/Staat SPXS/US

Große Konstellationen

Loading constellations...